Weather History for Fort Worth Spinks, TX

Change the Weather History Date:

Monday, January 28, 2013

  Actual Average (KDFW) Record (KDFW)
Temperature  
Mean Temperature 72 °F 47 °F  
Max Temperature 78 °F 58 °F 85 °F (1903)
Min Temperature 66 °F 36 °F 11 °F (1948)
Degree Days  
Heating Degree Days 0 18  
Month to date heating degree days 540  
Since 1 July heating degree days 1452  
Cooling Degree Days 7 0  
Month to date cooling degree days 0  
Year to date cooling degree days 0  
Growing Degree Days 22 (Base 50)    
Moisture  
Dew Point 62 °F    
Average Humidity 74    
Maximum Humidity 88    
Minimum Humidity 54    
Precipitation  
Precipitation 0.00 in 0.08 in 1.73 in (2010)
Month to date precipitation 1.89  
Year to date precipitation 1.89  
Snow  
Snow 0.00 in 0.00 in 2.40 in (1961)
Month to date snowfall 0.2  
Since 1 July snowfall 0.5  
Snow Depth -    
Sea Level Pressure  
Sea Level Pressure 29.94 in    
Wind  
Wind Speed 12 mph (South)    
Max Wind Speed 24 mph    
Max Gust Speed 32 mph    
Visibility 10 miles    
Events      
T = Trace of Precipitation, MM = Missing Value Source: NWS Daily Summary

Daily Weather History Graph

Daily Weather History Graph

Search for Another Location

Airport:

Trip Planner

Search our weather history database for the weather conditions in past years. The results will help you decide how hot, cold, wet, or windy it might be!

Date:

Astronomy

Jan. 28, 2013 Rise Set
Actual Time 7:26 AM CST 5:58 PM CST
Civil Twilight 7:00 AM CST 6:24 PM CST
Nautical Twilight 6:30 AM CST 6:54 PM CST
Astronomical Twilight 6:01 AM CST 7:23 PM CST
Moon 7:45 PM CST (1/28) 8:00 AM CST (1/28)
Length of Visible Light 11h 24m
Length of Day
10h 32m
Full, 98% of the Moon is Illuminated
Jan 28
Full
Feb 3
Last Quarter
Feb 10
New
Feb 17
First Quarter
Feb 25
Full

Hourly Weather History & Observations

Time (CST) Temp. Dew Point Humidity Pressure Visibility Wind Dir Wind Speed Gust Speed Precip Events Conditions
12:15 AM 68.0 °F 60.8 °F 78% 30.00 in 10.0 mi South 10.4 mph 19.6 mph N/A   Clear
12:35 AM 68.0 °F 62.6 °F 83% 30.00 in 10.0 mi South 11.5 mph 18.4 mph N/A   Scattered Clouds
12:55 AM 68.0 °F 62.6 °F 83% 30.00 in 10.0 mi South 12.7 mph 17.3 mph N/A   Clear
1:15 AM 68.0 °F 62.6 °F 83% 30.01 in 10.0 mi South 9.2 mph - N/A   Clear
1:35 AM 66.2 °F 60.8 °F 83% 30.00 in 10.0 mi South 9.2 mph - N/A   Clear
1:55 AM 66.2 °F 62.6 °F 88% 30.00 in 10.0 mi South 11.5 mph - N/A   Clear
2:15 AM 66.2 °F 62.6 °F 88% 30.00 in 10.0 mi South 10.4 mph - N/A   Scattered Clouds
2:35 AM 66.2 °F 62.6 °F 88% 30.00 in 10.0 mi South 10.4 mph - N/A   Scattered Clouds
2:55 AM 66.2 °F 62.6 °F 88% 30.00 in 10.0 mi South 8.1 mph - N/A   Scattered Clouds
3:15 AM 66.2 °F 62.6 °F 88% 30.00 in 10.0 mi South 8.1 mph - N/A   Scattered Clouds
3:35 AM 66.2 °F 62.6 °F 88% 30.00 in 10.0 mi South 10.4 mph - N/A   Scattered Clouds
3:55 AM 66.2 °F 62.6 °F 88% 30.00 in 10.0 mi SSE 8.1 mph - N/A   Mostly Cloudy
4:15 AM 68.0 °F 62.6 °F 83% 30.00 in 10.0 mi South 9.2 mph 17.3 mph N/A   Overcast
4:35 AM 68.0 °F 62.6 °F 83% 30.00 in 10.0 mi South 9.2 mph - N/A   Overcast
4:55 AM 68.0 °F 62.6 °F 83% 29.99 in 10.0 mi South 10.4 mph - N/A   Overcast
5:15 AM 68.0 °F 62.6 °F 83% 29.99 in 10.0 mi South 8.1 mph - N/A   Overcast
6:50 AM 68.0 °F 62.6 °F 83% 29.99 in 10.0 mi SSE 11.5 mph 17.3 mph N/A   Overcast
7:54 AM 68.0 °F 62.6 °F 83% 30.00 in 10.0 mi SSE 11.5 mph - N/A   Overcast
8:49 AM 69.8 °F 62.6 °F 78% 30.00 in 10.0 mi SSE 13.8 mph - N/A   Overcast
9:50 AM 71.6 °F 64.4 °F 78% 30.01 in 10.0 mi South 11.5 mph 19.6 mph N/A   Overcast
10:50 AM 73.4 °F 64.4 °F 73% 30.00 in 10.0 mi South 16.1 mph - N/A   Overcast
11:53 AM 73.4 °F 64.4 °F 73% 29.98 in 10.0 mi South 19.6 mph 32.2 mph N/A   Mostly Cloudy
12:49 PM 75.2 °F 64.4 °F 69% 29.94 in 10.0 mi South 18.4 mph - N/A   Mostly Cloudy
1:46 PM 77.0 °F 62.6 °F 61% 29.90 in 10.0 mi South 17.3 mph - N/A   Mostly Cloudy
2:52 PM 78.8 °F 62.6 °F 57% 29.87 in 10.0 mi South 24.2 mph 31.1 mph N/A   Mostly Cloudy
3:52 PM 78.8 °F 60.8 °F 54% 29.87 in 10.0 mi South 15.0 mph 32.2 mph N/A   Overcast
4:47 PM 78.8 °F 60.8 °F 54% 29.86 in 10.0 mi SSE 21.9 mph 29.9 mph N/A   Mostly Cloudy
5:45 PM 77.0 °F 60.8 °F 57% 29.86 in 10.0 mi SSE 18.4 mph 28.8 mph N/A   Mostly Cloudy
6:46 PM 75.2 °F 60.8 °F 61% 29.87 in 10.0 mi South 18.4 mph 25.3 mph N/A   Overcast
6:55 PM 73.4 °F 60.8 °F 65% 29.88 in 10.0 mi South 17.3 mph 25.3 mph N/A   Overcast
7:15 PM 73.4 °F 60.8 °F 65% 29.89 in 10.0 mi South 10.4 mph 20.7 mph N/A   Overcast
7:35 PM 73.4 °F 60.8 °F 65% 29.88 in 10.0 mi South 15.0 mph 21.9 mph N/A   Overcast
7:55 PM 73.4 °F 60.8 °F 65% 29.87 in 10.0 mi South 16.1 mph 23.0 mph N/A   Overcast
8:15 PM 73.4 °F 60.8 °F 65% 29.87 in 10.0 mi South 16.1 mph 25.3 mph N/A   Mostly Cloudy
8:35 PM 73.4 °F 60.8 °F 65% 29.87 in 10.0 mi South 15.0 mph 24.2 mph N/A   Overcast
8:55 PM 71.6 °F 60.8 °F 69% 29.87 in 10.0 mi South 16.1 mph 25.3 mph N/A   Overcast
9:15 PM 71.6 °F 60.8 °F 69% 29.87 in 10.0 mi SSE 18.4 mph 23.0 mph N/A   Overcast
9:35 PM 71.6 °F 60.8 °F 69% 29.87 in 10.0 mi South 17.3 mph 25.3 mph N/A   Scattered Clouds
9:55 PM 71.6 °F 60.8 °F 69% 29.87 in 10.0 mi South 13.8 mph 25.3 mph N/A   Mostly Cloudy
10:15 PM 69.8 °F 60.8 °F 73% 29.87 in 10.0 mi South 11.5 mph 18.4 mph N/A   Mostly Cloudy
10:35 PM 71.6 °F 60.8 °F 69% 29.88 in 10.0 mi South 9.2 mph - N/A   Overcast
10:55 PM 69.8 °F 60.8 °F 73% 29.87 in 10.0 mi South 13.8 mph 19.6 mph N/A   Overcast
11:15 PM 69.8 °F 62.6 °F 78% 29.87 in 10.0 mi South 10.4 mph 18.4 mph N/A   Overcast
11:35 PM 69.8 °F 60.8 °F 73% 29.86 in 10.0 mi SSE 13.8 mph 18.4 mph N/A   Overcast
11:55 PM 69.8 °F 62.6 °F 78% 29.86 in 10.0 mi South 10.4 mph 19.6 mph N/A   Overcast